Flag for Slovakia Weather past 2 weeks in Bratislava, Slovakia

Now
43 °F

Fog.


Feels Like: 43 °F
Forecast: 39 / 54 °F
Wind: 2 mph from North

Location: Bratislava Ivanka

Current Time: Oct 25, 2014 at 6:18:26 AM

Latest Report: Oct 25, 2014 at 6:00 AM


Visibility: 1 mi

Pressure: 30.21 "Hg

Humidity: 100%

Dew point: 43 °F

Location of BratislavaLocation

Historic Weather in Bratislava — Graph

°F

Bratislava temperature yesterday

Maximum temperature yesterday: 54 °F (at 2:00 PM)
Minimum temperature yesterday: 43 °F (at 2:30 AM)
Average temperature yesterday: 47 °F

Past Weeks' High & Low Weather Summary

 TemperatureHumidityPressure
High73 °F (Oct 10, 4:00 PM)100% (Oct 14, 5:30 AM)30.33 "Hg (Oct 14, 5:30 AM)
Low43 °F (Oct 24, 2:30 AM)50% (Oct 16, 1:30 PM)29.59 "Hg (Oct 22, 1:30 AM)
Average57 °F80%29.95 "Hg
* Reported Oct 10 5:00 AM — Oct 25 5:00 AM, Bratislava, Weather by CustomWeather, © 2014

Note: Actual official high and low records may vary slightly from our data, if they occured in-between our weather recording intervals... More about our weather records

Advertising

Bratislava weather history for previous 24 hours

 ConditionsComfort  
Time TempWeatherWind HumidityBarometerVisibility
5:00 AM
Oct 25
43 °FDrizzle. Fog.No wind93%30.21 "Hg1 mi
4:30 AM43 °FDrizzle. Fog.2 mph93%30.21 "Hg1 mi
4:00 AM45 °FDrizzle. Fog.No wind87%30.21 "Hg1 mi
3:30 AM43 °FDrizzle. Fog.No wind93%30.21 "Hg1 mi
3:00 AM43 °FFog.2 mph93%30.21 "Hg2 mi
2:30 AM43 °FDrizzle. Fog.2 mph93%30.21 "Hg2 mi
2:00 AM45 °FDrizzle. Fog.2 mph93%30.21 "Hg2 mi
1:30 AM45 °FDrizzle. Fog.3 mph87%30.21 "Hg2 mi
1:00 AM45 °FDrizzle. Fog.1 mph87%30.21 "Hg2 mi
12:30 AM45 °FPartly cloudy.No wind87%30.21 "Hg4 mi
12:00 AM45 °FPartly cloudy.3 mph87%30.21 "Hg4 mi
11:30 PM
Oct 24
45 °FPartly cloudy.2 mph87%30.21 "Hg4 mi
11:00 PM45 °FPassing clouds.1 mph87%30.21 "Hg4 mi
10:30 PM45 °FDrizzle. Fog.1 mph93%30.18 "Hg3 mi
10:00 PM45 °FDrizzle. Fog.2 mph93%30.18 "Hg3 mi
9:30 PM46 °FLight rain. Partly cloudy.7 mph87%30.18 "Hg4 mi
9:00 PM46 °FLight rain. Passing clouds.7 mph87%30.15 "HgN/A
8:30 PM46 °FLight rain. Passing clouds.5 mph87%30.15 "HgN/A
8:00 PM48 °FPassing clouds.5 mph76%30.15 "HgN/A
7:30 PM48 °FPassing clouds.3 mph76%30.12 "HgN/A
7:00 PM48 °FPassing clouds.3 mph71%30.12 "HgN/A
6:30 PM48 °FBroken clouds.No wind71%30.12 "HgN/A
6:00 PM48 °FBroken clouds.2 mph71%30.09 "HgN/A
5:30 PM50 °FSunny.7 mph67%30.09 "Hg10 mi
5:00 PM50 °FSunny.7 mph67%30.09 "Hg10 mi
4:30 PM54 °FPassing clouds.7 mph58%30.09 "HgN/A
4:00 PM52 °FSunny.14 mph62%30.07 "Hg10 mi
3:30 PM54 °FSunny.12 mph58%30.07 "Hg10 mi
3:00 PM54 °FSunny.13 mph58%30.07 "Hg10 mi
2:30 PM54 °FPassing clouds.13 mph58%30.07 "HgN/A
2:00 PM54 °FPassing clouds.12 mph63%30.09 "HgN/A
1:30 PM52 °FPassing clouds.13 mph62%30.09 "HgN/A
1:00 PM52 °FPassing clouds.14 mph62%30.09 "HgN/A
12:30 PM50 °FPassing clouds.12 mph67%30.09 "HgN/A
12:00 PM48 °FPassing clouds.10 mph71%30.09 "HgN/A
11:30 AM48 °FPassing clouds.12 mph71%30.09 "HgN/A
11:00 AM48 °FPassing clouds.14 mph71%30.07 "HgN/A
10:30 AM46 °FPassing clouds.16 mph76%30.07 "HgN/A
10:00 AM48 °FPassing clouds.15 mph71%30.07 "HgN/A
9:30 AM46 °FPassing clouds.15 mph71%30.07 "HgN/A
9:00 AM46 °FPassing clouds.13 mph76%30.07 "HgN/A
8:30 AM45 °FPassing clouds.10 mph76%30.04 "HgN/A
8:00 AM43 °FPassing clouds.12 mph81%30.04 "HgN/A
7:30 AM43 °FPassing clouds.12 mph81%30.04 "HgN/A
7:00 AM43 °FPassing clouds.10 mph81%30.01 "HgN/A
6:30 AM43 °FPassing clouds.9 mph81%30.01 "HgN/A
6:00 AM43 °FPassing clouds.8 mph81%30.01 "HgN/A
Weather by CustomWeather, © 2014

See weather overviewHow to use our weather pages